Voltar ao catálogo

STARLINK-1596

AtivoComunicaçõesVLEO
NORAD 46141·PAYLOAD·🇺🇸 United States

Lançado Aug 18, 2020 de Cape Canaveral Space Force Station

Loading…

Próximas Passagens (próximas 24 horas)

TLE

AtualizadoSource: CelesTrak SupGP

Época: Sep 15, 2026, 01:52 UTC

1 46141C 20057AA  26258.07826389  .00092053  00000+0  57188-3 0  2584
2 46141  53.0298  27.3741 0002538 353.7134   9.8970 15.76251764    11

Acompanhe STARLINK-1596 em tempo real com AllMySat

Download on the App Store